COSMOS 1255

Satellite information

Favourite Embed

Satellite Type and Status

PAYLOADIN ORBIT

Key statistics

Satellite COSMOS 1255 at a glance.

Uptime

16136

Days in orbit

Revolutions

≈ 12.5

Per day

Orbit

LEO

Low Earth Orbit

Inclination

74.0

Latest

Satellite identification and parameters

Extended collection of information and parameters for COSMOS 1255.

Object identification

Identified? True

Debris? False

Object name: COSMOS 1255

International designator: 1981-022F

Object number (NORAD): 12325

Object ID (CCSDS): 12325

Country: COMMONWEALTH OF INDEPENDENT STATES (CIS)

Current information (Y/N): Y

RCS size: MEDIUM

Orbital parameters

Period: 115.063 minutes

Inclination: 74.0284 deg

SMA: 7836.431 km

Apoapsis: 1472.246 km

Periapsis: 1444.345 km

RAAN: 89.2689 deg

Eccentricy: 0.0017802

Argument of periapsis: 277.8789 deg

Mean anomaly: 197.0502 deg

Mean motion: 12.51484029 rev/day

Mean motion (dot): -0.00000013 rev/day2

B* drag term: 0.000017561 1/REarth

Two-line elements (TLE)

Creation date: May 10, 2025, 2:32 a.m.

Reference frame: TEME

Reference center: EARTH

Epoch: May 9, 2025, 8:38 a.m. UTC

TLE line 0: 0 COSMOS 1255

TLE line 1: 1 12325U 81022F 25129.36001051 -.00000013 00000-0 17561-4 0 9990

TLE line 2: 2 12325 74.0284 89.2689 0017802 277.8789 197.0502 12.51484029 18063

Live tracking on map

Real-time ground track for satellite COSMOS 1255.

In-orbit conjunctions

A list of the most updated potential collisions computed for object COSMOS 1255.

Target Orbit TCA Probability of collision Miss distance Type
COSMOS 1823 DEB LEO 2025-01-04 15:01:28 0.0001218282 39.0 (m) DEBRIS

Associated space launch

Military communications satellites

COSMOS 1255 was lifted into orbit during the mission ‘Kosmos-3M | Strela-1M 209-216’, on board a Kosmos-3M space rocket.

The launch took place on March 6, 1981, 11:31 a.m. from 132/2.

For more information about the launch, click the button.

Launch to space Kosmos-3M | Strela-1M 209-216
Kosmos-3M | Strela-1M 209-216

Agency: N/A

Status: Launch Successful

Launch date: March 6, 1981, 11:31 a.m. UTC

Rocket: Kosmos-3M

Launch pad: 132/2

Location: Plesetsk Cosmodrome, Russian Federation

...

Latest news about this satellite

There are no fresh news available about this satellite. Check back as we update our databases every day.


Newsletter sign-up

Weekly statistics, charts and insights to help you stay on top of the space industry.